• In Österreich
  • Länderverzeichnis
  • Für 7 Tage
  • Wassertemperatur
  • Satellitenkarten
  • Wetterkarte
  • News
  • Widgets
  • user-avatar
    Anmelden

    Stündliche Wetter Tusla

    Heute, 24 September, Montag

    Zeit Temperatur Niederschläge Wind Luftdruck Luftfeuchtigkeit
    00:00 +18°C° 0 mm 2 m/S 720 mmHg 80%
    01:00 +18°C° 0 mm 2 m/S 720 mmHg 80%
    02:00 +17°C° 0 mm 2 m/S 720 mmHg 80%
    03:00 +17°C° 0 mm 2 m/S 720 mmHg 80%
    04:00 +16°C° 0 mm 2 m/S 720 mmHg 81%
    05:00 +17°C° 0.4 mm 2 m/S 721 mmHg 81%
    06:00 +17°C° 0.4 mm 3 m/S 722 mmHg 81%
    07:00 +17°C° 0.4 mm 4 m/S 723 mmHg 82%
    08:00 +14°C° 1.2 mm 4 m/S 724 mmHg 85%
    09:00 +12°C° 1.2 mm 4 m/S 725 mmHg 89%
    10:00 +10°C° 1.2 mm 4 m/S 727 mmHg 93%
    11:00 +10°C° 0.3 mm 3 m/S 727 mmHg 91%
    12:00 +10°C° 0.3 mm 3 m/S 728 mmHg 90%
    13:00 +9°C° 0.3 mm 2 m/S 729 mmHg 89%
    14:00 +9°C° 0.2 mm 2 m/S 729 mmHg 89%
    15:00 +9°C° 0.2 mm 2 m/S 728 mmHg 89%
    16:00 +10°C° 0.2 mm 1 m/S 728 mmHg 90%
    17:00 +9°C° 0.2 mm 1 m/S 729 mmHg 90%
    18:00 +9°C° 0.2 mm 1 m/S 729 mmHg 90%
    19:00 +9°C° 0.2 mm 1 m/S 729 mmHg 90%
    20:00 +8°C° 0 mm 1 m/S 730 mmHg 90%
    21:00 +7°C° 0 mm 1 m/S 730 mmHg 89%
    22:00 +6°C° 0 mm 1 m/S 730 mmHg 89%
    23:00 +6°C° 0 mm 1 m/S 730 mmHg 89%

    Morgen, 25 September, Dienstag

    Zeit Temperatur Niederschläge Wind Luftdruck Luftfeuchtigkeit
    00:00 +6°C° 0 mm 1 m/S 731 mmHg 89%
    01:00 +5°C° 0 mm 1 m/S 731 mmHg 90%
    02:00 +5°C° 0 mm 1 m/S 731 mmHg 90%
    03:00 +5°C° 0 mm 1 m/S 731 mmHg 90%
    04:00 +5°C° 0 mm 1 m/S 731 mmHg 91%
    05:00 +5°C° 0 mm 1 m/S 732 mmHg 89%
    06:00 +6°C° 0 mm 1 m/S 732 mmHg 87%
    07:00 +7°C° 0 mm 1 m/S 732 mmHg 85%
    08:00 +8°C° 0 mm 1 m/S 733 mmHg 74%
    09:00 +9°C° 0 mm 2 m/S 733 mmHg 64%
    10:00 +12°C° 0 mm 2 m/S 733 mmHg 53%
    11:00 +12°C° 0 mm 3 m/S 733 mmHg 48%
    12:00 +13°C° 0 mm 3 m/S 732 mmHg 42%
    13:00 +13°C° 0 mm 4 m/S 732 mmHg 37%
    14:00 +13°C° 0 mm 3 m/S 732 mmHg 38%
    15:00 +13°C° 0 mm 3 m/S 732 mmHg 38%
    16:00 +13°C° 0 mm 3 m/S 732 mmHg 39%
    17:00 +10°C° 0 mm 3 m/S 732 mmHg 46%
    18:00 +8°C° 0 mm 2 m/S 732 mmHg 53%
    19:00 +7°C° 0 mm 1 m/S 733 mmHg 60%
    20:00 +6°C° 0 mm 1 m/S 733 mmHg 62%
    21:00 +6°C° 0 mm 1 m/S 733 mmHg 63%
    22:00 +5°C° 0 mm 1 m/S 734 mmHg 65%
    23:00 +4°C° 0 mm 1 m/S 734 mmHg 67%

    übermorgen, 26 September, Mittwoch

    Zeit Temperatur Niederschläge Wind Luftdruck Luftfeuchtigkeit
    00:00 +4°C° 0 mm 1 m/S 734 mmHg 68%
    01:00 +4°C° 0 mm 1 m/S 734 mmHg 70%
    02:00 +3°C° 0 mm 1 m/S 734 mmHg 71%
    03:00 +3°C° 0 mm 1 m/S 734 mmHg 73%
    04:00 +3°C° 0 mm 1 m/S 734 mmHg 74%
    05:00 +4°C° 0 mm 1 m/S 734 mmHg 70%
    06:00 +5°C° 0 mm 1 m/S 735 mmHg 65%
    07:00 +6°C° 0 mm 1 m/S 735 mmHg 61%
    08:00 +7°C° 0 mm 2 m/S 735 mmHg 53%
    09:00 +10°C° 0 mm 2 m/S 735 mmHg 46%
    10:00 +12°C° 0 mm 3 m/S 736 mmHg 38%
    11:00 +13°C° 0 mm 3 m/S 735 mmHg 36%
    12:00 +14°C° 0 mm 3 m/S 735 mmHg 33%
    13:00 +14°C° 0 mm 3 m/S 735 mmHg 31%
    14:00 +14°C° 0 mm 3 m/S 734 mmHg 32%
    15:00 +14°C° 0 mm 3 m/S 734 mmHg 33%
    16:00 +15°C° 0 mm 2 m/S 734 mmHg 34%
    17:00 +12°C° 0 mm 2 m/S 734 mmHg 40%
    18:00 +10°C° 0 mm 1 m/S 734 mmHg 47%
    19:00 +7°C° 0 mm 1 m/S 734 mmHg 54%
    20:00 +7°C° 0 mm 1 m/S 734 mmHg 55%
    21:00 +6°C° 0 mm 1 m/S 734 mmHg 56%
    22:00 +6°C° 0 mm 1 m/S 734 mmHg 57%
    23:00 +6°C° 0 mm 1 m/S 734 mmHg 57%

    27 September, Donnerstag

    Zeit Temperatur Niederschläge Wind Luftdruck Luftfeuchtigkeit
    00:00 +5°C° 0 mm 1 m/S 734 mmHg 58%
    01:00 +5°C° 0 mm 1 m/S 734 mmHg 58%
    02:00 +5°C° 0 mm 1 m/S 734 mmHg 58%
    03:00 +5°C° 0 mm 1 m/S 733 mmHg 57%
    04:00 +5°C° 0 mm 1 m/S 733 mmHg 57%
    05:00 +6°C° 0 mm 1 m/S 733 mmHg 54%
    06:00 +7°C° 0 mm 1 m/S 733 mmHg 50%
    07:00 +8°C° 0 mm 1 m/S 733 mmHg 47%
    08:00 +11°C° 0 mm 1 m/S 733 mmHg 40%
    09:00 +14°C° 0 mm 1 m/S 733 mmHg 33%
    10:00 +18°C° 0 mm 1 m/S 733 mmHg 26%
    11:00 +18°C° 0 mm 2 m/S 732 mmHg 24%
    12:00 +19°C° 0 mm 2 m/S 732 mmHg 23%
    13:00 +20°C° 0 mm 2 m/S 731 mmHg 21%
    14:00 +19°C° 0 mm 2 m/S 731 mmHg 24%
    15:00 +19°C° 0 mm 2 m/S 730 mmHg 27%
    16:00 +18°C° 0 mm 2 m/S 730 mmHg 29%
    17:00 +16°C° 0 mm 1 m/S 729 mmHg 35%
    18:00 +13°C° 0 mm 1 m/S 729 mmHg 40%
    19:00 +10°C° 0 mm 1 m/S 729 mmHg 46%
    20:00 +10°C° 0 mm 1 m/S 729 mmHg 46%
    21:00 +9°C° 0 mm 1 m/S 729 mmHg 47%
    22:00 +9°C° 0 mm 1 m/S 728 mmHg 48%
    23:00 +9°C° 0 mm 1 m/S 728 mmHg 48%

    28 September, Freitag

    Zeit Temperatur Niederschläge Wind Luftdruck Luftfeuchtigkeit
    00:00 +9°C° 0 mm 1 m/S 728 mmHg 48%
    01:00 +8°C° 0 mm 1 m/S 727 mmHg 48%
    02:00 +8°C° 0 mm 1 m/S 727 mmHg 47%
    03:00 +8°C° 0 mm 1 m/S 726 mmHg 47%
    04:00 +8°C° 0 mm 1 m/S 726 mmHg 46%
    05:00 +9°C° 0 mm 1 m/S 726 mmHg 45%
    06:00 +10°C° 0 mm 1 m/S 726 mmHg 43%
    07:00 +11°C° 0 mm 1 m/S 726 mmHg 42%
    08:00 +13°C° 0 mm 1 m/S 726 mmHg 37%
    09:00 +16°C° 0 mm 1 m/S 726 mmHg 32%
    10:00 +19°C° 0 mm 2 m/S 726 mmHg 26%
    11:00 +20°C° 0 mm 2 m/S 725 mmHg 26%
    12:00 +21°C° 0 mm 2 m/S 725 mmHg 25%
    13:00 +23°C° 0 mm 2 m/S 725 mmHg 25%
    14:00 +23°C° 0 mm 2 m/S 724 mmHg 28%
    15:00 +21°C° 0 mm 2 m/S 724 mmHg 30%
    16:00 +21°C° 0 mm 2 m/S 723 mmHg 33%
    17:00 +18°C° 0 mm 2 m/S 723 mmHg 40%
    18:00 +15°C° 0 mm 1 m/S 723 mmHg 46%
    19:00 +12°C° 0 mm 1 m/S 723 mmHg 52%
    20:00 +12°C° 0 mm 1 m/S 723 mmHg 53%
    21:00 +11°C° 0 mm 1 m/S 723 mmHg 55%
    22:00 +11°C° 0 mm 1 m/S 724 mmHg 56%
    23:00 +10°C° 0 mm 1 m/S 723 mmHg 57%

    29 September, Samstag

    Zeit Temperatur Niederschläge Wind Luftdruck Luftfeuchtigkeit
    00:00 +10°C° 0 mm 1 m/S 723 mmHg 58%
    01:00 +9°C° 0 mm 1 m/S 723 mmHg 59%
    02:00 +9°C° 0 mm 1 m/S 723 mmHg 59%
    03:00 +9°C° 0 mm 1 m/S 723 mmHg 60%
    04:00 +9°C° 0 mm 1 m/S 723 mmHg 60%
    05:00 +10°C° 0 mm 1 m/S 724 mmHg 58%
    06:00 +11°C° 0 mm 1 m/S 724 mmHg 56%
    07:00 +11°C° 0 mm 1 m/S 724 mmHg 54%
    08:00 +14°C° 0 mm 1 m/S 725 mmHg 48%
    09:00 +18°C° 0 mm 1 m/S 725 mmHg 41%
    10:00 +19°C° 0 mm 2 m/S 725 mmHg 34%
    11:00 +20°C° 0 mm 2 m/S 725 mmHg 33%
    12:00 +21°C° 0 mm 3 m/S 725 mmHg 33%
    13:00 +21°C° 0 mm 3 m/S 725 mmHg 32%
    14:00 +21°C° 0 mm 3 m/S 725 mmHg 35%
    15:00 +21°C° 0 mm 2 m/S 725 mmHg 37%
    16:00 +20°C° 0 mm 2 m/S 724 mmHg 40%
    17:00 +18°C° 0 mm 2 m/S 725 mmHg 47%
    18:00 +15°C° 0 mm 1 m/S 725 mmHg 55%
    19:00 +13°C° 0 mm 1 m/S 725 mmHg 63%
    20:00 +12°C° 0 mm 1 m/S 725 mmHg 66%
    21:00 +11°C° 0 mm 1 m/S 725 mmHg 69%
    22:00 +11°C° 0 mm 1 m/S 725 mmHg 73%
    23:00 +10°C° 0 mm 1 m/S 725 mmHg 76%
    Mehr zeigen

    3.3.7123123